Regional Weather Roundup
Issued by NWS

Home | Current Version | Previous Version | Text Only | Print | Product List | Glossary On
Versions: 1 2 3 4 5 6 7 8 9 10 11 12 13 14 15 16 17 18 19 20 21 22 23 24 25 26 27 28 29 30 31 32 33 34 35 36 37 38 39 40 41 42 43 44 45 46 47 48 49 50
000
ASCA42 TJSJ 031210
RWRPR
PUERTO RICO/U.S. VIRGIN ISLANDS HOURLY WEATHER ROUNDUP
NATIONAL WEATHER SERVICE SAN JUAN PR
800 AM AST FRI JUL 03 2015

PRZ001-004-031300-
PUERTO RICO

CITY           SKY/WX    TMP DP  RH WIND       PRES   REMARKS
SAN JUAN LMM   MOSUNNY   82  75  78 E10       30.09R
AGUADILLA      PTSUNNY   81  72  74 E6        30.10R
CEIBA          CLOUDY    84  73  70 E13       30.11R HX  91
$$

PRZ006-007-031300-
U.S. VIRGIN ISLANDS

CITY           SKY/WX    TMP DP  RH WIND       PRES   REMARKS
CHARLOTTE AMA  CLOUDY    86  70  58 E17       30.08R HX  90
CHRISTIANSTED  MOSUNNY   84  70  61 E18G24    30.07R
$$

HOURLY WEATHER ROUNDUP FOR THE NEWS MEDIA

CITY           SKY/WX    TMP DP  RH WIND       PRES   REMARKS
ORLANDO        SUNNY     78  75  90 S5        30.10R
NEW YORK       MOSUNNY   70  52  52 N10       29.97R
NEWARK         MOSUNNY   70  55  59 N13       29.97R
CHICAGO        PTSUNNY   59  54  83 N3        29.98R
HARTFORD       SUNNY     68  54  60 VRB5      29.92R
BOSTON         MOSUNNY   68  49  50 N10       29.95R
DALLAS         LGT RAIN  80  72  76 SW8       29.96R
PHILADELPHIA   PTSUNNY   71  58  63 NE7       29.97R
LOS ANGELES    CLOUDY    63  61  93 W3        29.95S
WASHINGTON DC  CLOUDY    65  63  93 CALM      29.98R FOG


USA.gov is the U.S. government's official web portal to all federal, state and local government web resources and services.